Location: Arezzo
(43.4170°N, 11.8830°E)
Time: 06:38:40
(UTC+02:00)

STARLINK-2666 - Visible Passes

Search period start: 17 October 2021 00:00
Search period end: 27 October 2021 00:00
Orbit: 546 x 548 km, 53.1° (Epoch: 16 October)

Date Brightness Start Highest point End Pass type
(mag) Time Alt. Az. Time Alt. Az. Time Alt. Az.
22 Oct 6.2 06:57:22 10° S 07:00:39 23° SE 07:03:56 10° ENE visible
23 Oct 5.6 06:50:53 10° SSW 06:54:31 30° SE 06:58:09 10° ENE visible
24 Oct 4.9 06:44:34 10° SSW 06:48:27 41° SE 06:52:20 10° ENE visible
25 Oct 4.3 06:38:26 10° SW 06:42:27 55° SE 06:46:30 10° ENE visible
26 Oct 6.5 04:56:30 10° SE 04:57:39 11° SE 04:58:56 10° ESE visible
26 Oct 3.8 06:32:25 10° SW 06:36:32 73° SE 06:40:40 10° ENE visible
